TimeCDT,TemperatureF,Dew PointF,Humidity,Sea Level PressureIn,VisibilityMPH,Wind Direction,Wind SpeedMPH,Gust SpeedMPH,PrecipitationIn,Events,Conditions,WindDirDegrees,DateUTC
12:13 AM,68.9,66.9,93,29.69,10.0,SSE,5.8,-,N/A,,Clear,150,2013-09-19 05:13:00
12:33 AM,68.4,66.6,94,29.68,10.0,SSE,4.6,-,N/A,,Clear,150,2013-09-19 05:33:00
12:53 AM,67.6,66.2,95,29.69,10.0,SSE,5.8,-,N/A,,Clear,160,2013-09-19 05:53:00
1:13 AM,67.1,66.0,96,29.69,10.0,SSE,5.8,-,N/A,,Clear,150,2013-09-19 06:13:00
1:33 AM,68.4,66.4,93,29.69,10.0,SSE,6.9,-,N/A,,Clear,160,2013-09-19 06:33:00
1:53 AM,71.6,67.1,86,29.69,10.0,South,6.9,-,N/A,,Clear,170,2013-09-19 06:53:00
2:13 AM,71.6,66.7,85,29.69,10.0,South,4.6,-,N/A,,Clear,180,2013-09-19 07:13:00
2:33 AM,71.6,66.6,84,29.71,10.0,Calm,Calm,-,N/A,,Clear,0,2013-09-19 07:33:00
2:53 AM,70.3,66.9,89,29.70,10.0,South,3.5,-,N/A,,Clear,180,2013-09-19 07:53:00
3:13 AM,71.8,66.4,83,29.71,10.0,North,8.1,-,N/A,,Clear,360,2013-09-19 08:13:00
3:32 AM,68.5,66.2,92,29.70,10.0,Calm,Calm,-,N/A,,Clear,0,2013-09-19 08:32:00
3:54 AM,68.0,66.2,94,29.69,10.0,East,3.5,-,N/A,,Clear,80,2013-09-19 08:54:00
4:13 AM,67.1,65.3,94,29.69,10.0,Calm,Calm,-,N/A,,Clear,0,2013-09-19 09:13:00
4:34 AM,66.6,65.5,96,29.68,10.0,SE,5.8,-,N/A,,Scattered Clouds,130,2013-09-19 09:34:00
4:53 AM,66.9,65.5,95,29.67,10.0,ESE,6.9,-,N/A,,Clear,120,2013-09-19 09:53:00
5:15 AM,67.1,65.5,95,29.68,10.0,East,3.5,-,N/A,,Clear,90,2013-09-19 10:15:00
5:33 AM,66.2,64.8,95,29.69,10.0,Calm,Calm,-,N/A,,Clear,0,2013-09-19 10:33:00
5:53 AM,65.3,64.4,97,29.69,10.0,Calm,Calm,-,N/A,Thunderstorm,Clear,0,2013-09-19 10:53:00
6:13 AM,64.4,63.5,97,29.68,7.0,SE,4.6,-,N/A,,Clear,140,2013-09-19 11:13:00
6:33 AM,64.0,63.7,99,29.67,7.0,Calm,Calm,-,N/A,,Clear,0,2013-09-19 11:33:00
6:53 AM,63.1,62.8,99,29.66,5.0,Calm,Calm,-,N/A,,Clear,0,2013-09-19 11:53:00
7:13 AM,63.9,63.5,99,29.68,7.0,Calm,Calm,-,N/A,,Clear,0,2013-09-19 12:13:00
7:32 AM,64.2,63.9,99,29.71,7.0,SSW,8.1,-,N/A,,Mostly Cloudy,210,2013-09-19 12:32:00
7:53 AM,67.1,63.9,89,29.74,10.0,West,20.7,28.8,N/A,Thunderstorm,Overcast,260,2013-09-19 12:53:00
8:13 AM,64.8,63.1,94,29.71,2.5,NW,13.8,25.3,0.18,Rain-Thunderstorm,Heavy Thunderstorms and Rain,310,2013-09-19 13:13:00
8:33 AM,65.3,63.5,94,29.70,10.0,NW,19.6,23.0,0.19,Rain-Thunderstorm,Light Thunderstorms and Rain,310,2013-09-19 13:33:00
8:53 AM,64.2,62.1,93,29.70,10.0,NW,12.7,-,0.20,Rain,Light Rain,310,2013-09-19 13:53:00
9:12 AM,64.4,61.9,92,29.70,10.0,NW,13.8,-,N/A,Thunderstorm,Scattered Clouds,320,2013-09-19 14:12:00
9:33 AM,64.4,61.7,91,29.73,10.0,NNW,8.1,-,N/A,,Scattered Clouds,340,2013-09-19 14:33:00
9:53 AM,64.8,61.7,90,29.75,10.0,NE,3.5,-,N/A,,Clear,40,2013-09-19 14:53:00
10:13 AM,64.6,62.1,92,29.79,10.0,Calm,Calm,-,N/A,,Clear,0,2013-09-19 15:13:00
10:33 AM,64.9,62.6,92,29.81,10.0,SW,5.8,-,N/A,Rain,Light Rain,220,2013-09-19 15:33:00
10:53 AM,65.1,62.8,92,29.81,10.0,Calm,Calm,-,N/A,Rain,Light Rain,0,2013-09-19 15:53:00
11:13 AM,65.5,63.5,93,29.82,10.0,Calm,Calm,-,N/A,Rain,Light Rain,0,2013-09-19 16:13:00
11:33 AM,67.1,63.9,89,29.82,-9999.0,WNW,3.5,-,0.10,,Unknown,290,2013-09-19 16:33:00
11:53 AM,68.0,64.0,87,29.82,10.0,West,6.9,-,0.10,,Overcast,280,2013-09-19 16:53:00
12:13 PM,69.1,63.3,82,29.82,10.0,NNW,5.8,-,N/A,,Scattered Clouds,330,2013-09-19 17:13:00
12:33 PM,69.8,63.1,79,29.84,10.0,NNW,8.1,-,N/A,,Scattered Clouds,340,2013-09-19 17:33:00
12:53 PM,70.0,63.7,80,29.85,10.0,NNW,8.1,-,N/A,,Scattered Clouds,330,2013-09-19 17:53:00
1:13 PM,70.5,63.0,77,29.85,10.0,WNW,12.7,-,N/A,,Overcast,300,2013-09-19 18:13:00
1:33 PM,69.8,61.5,75,29.85,10.0,WNW,10.4,-,N/A,,Mostly Cloudy,300,2013-09-19 18:33:00
1:53 PM,69.4,60.4,73,29.86,10.0,NNW,6.9,-,N/A,,Scattered Clouds,330,2013-09-19 18:53:00
2:13 PM,69.8,60.3,72,29.85,10.0,NNW,8.1,-,N/A,,Scattered Clouds,340,2013-09-19 19:13:00
2:33 PM,71.2,59.4,66,29.86,10.0,NNW,9.2,-,N/A,,Mostly Cloudy,340,2013-09-19 19:33:00
2:53 PM,71.8,57.6,61,29.85,10.0,NW,9.2,-,N/A,,Scattered Clouds,320,2013-09-19 19:53:00
3:13 PM,72.7,56.8,57,29.84,10.0,NW,8.1,-,N/A,,Scattered Clouds,310,2013-09-19 20:13:00
3:34 PM,73.8,55.2,52,29.83,10.0,WNW,11.5,19.6,N/A,,Scattered Clouds,300,2013-09-19 20:34:00
3:53 PM,73.6,55.8,54,29.84,10.0,WNW,13.8,-,N/A,,Scattered Clouds,290,2013-09-19 20:53:00
4:13 PM,74.8,53.4,47,29.84,10.0,NW,11.5,-,N/A,,Scattered Clouds,310,2013-09-19 21:13:00
4:33 PM,74.5,52.7,46,29.84,10.0,NW,11.5,-,N/A,,Clear,310,2013-09-19 21:33:00
4:55 PM,75.2,50.9,42,29.86,10.0,WNW,17.3,20.7,N/A,,Clear,290,2013-09-19 21:55:00
5:13 PM,73.4,48.7,42,29.86,10.0,WNW,20.7,-,N/A,,Clear,290,2013-09-19 22:13:00
5:33 PM,72.5,45.9,39,29.87,10.0,WNW,21.9,29.9,N/A,,Clear,290,2013-09-19 22:33:00
5:53 PM,70.2,46.4,43,29.88,10.0,WNW,13.8,21.9,N/A,,Clear,290,2013-09-19 22:53:00
6:13 PM,69.1,47.1,45,29.89,10.0,West,15.0,24.2,N/A,,Clear,280,2013-09-19 23:13:00
6:33 PM,67.3,45.5,45,29.89,10.0,WNW,12.7,20.7,N/A,,Clear,290,2013-09-19 23:33:00
6:53 PM,66.2,46.2,49,29.90,10.0,WNW,10.4,-,N/A,,Clear,290,2013-09-19 23:53:00
7:13 PM,65.3,46.6,51,29.89,10.0,WNW,13.8,23.0,N/A,,Clear,290,2013-09-20 00:13:00
7:33 PM,64.2,46.6,53,29.88,10.0,WNW,9.2,18.4,N/A,,Clear,300,2013-09-20 00:33:00
7:53 PM,63.0,47.5,57,29.88,10.0,WNW,8.1,-,N/A,,Clear,300,2013-09-20 00:53:00
8:13 PM,62.6,48.2,59,29.89,10.0,WNW,9.2,-,N/A,,Scattered Clouds,290,2013-09-20 01:13:00
8:33 PM,61.9,49.1,63,29.89,10.0,WNW,11.5,17.3,N/A,Rain,Light Rain,290,2013-09-20 01:33:00
8:53 PM,59.5,52.0,76,29.89,10.0,WNW,11.5,18.4,N/A,,Overcast,300,2013-09-20 01:53:00
9:13 PM,58.6,52.3,80,29.91,10.0,Calm,Calm,-,N/A,,Overcast,0,2013-09-20 02:13:00
9:33 PM,58.5,52.2,80,29.92,10.0,Calm,Calm,-,N/A,,Overcast,0,2013-09-20 02:33:00
9:53 PM,58.1,51.1,77,29.93,10.0,Calm,Calm,-,N/A,,Overcast,0,2013-09-20 02:53:00
10:13 PM,57.2,50.9,79,29.93,10.0,Calm,Calm,-,N/A,,Overcast,0,2013-09-20 03:13:00
10:33 PM,56.8,50.5,79,29.95,10.0,Calm,Calm,-,N/A,,Overcast,0,2013-09-20 03:33:00
10:54 PM,56.5,50.4,80,29.96,10.0,Calm,Calm,-,N/A,,Overcast,0,2013-09-20 03:54:00
11:13 PM,55.4,50.0,82,29.96,10.0,WNW,4.6,-,N/A,,Scattered Clouds,290,2013-09-20 04:13:00
11:33 PM,54.0,49.6,85,29.96,10.0,Calm,Calm,-,N/A,,Clear,0,2013-09-20 04:33:00
11:53 PM,52.9,49.5,88,29.96,10.0,Calm,Calm,-,N/A,,Clear,0,2013-09-20 04:53:00